API VERSION: 1.2 API SOURCE: NASA/JPL Horizons API ******************************************************************************* JPL/HORIZONS (2024 YR4) 2025-Dec-12 21:13:00 Rec #:50582929 (+COV) Soln.date: 2025-Jun-03_07:47:32 # obs: 477 (2024-2025) IAU76/J2000 helio. ecliptic osc. elements (au, days, deg., period=Julian yrs): EPOCH= 2460705.5 ! 2025-Jan-30.00 (TDB) Residual RMS= .058675 EC= .6615999301423001 QR= .8515188266875525 TP= 2460636.9238411798 OM= 271.3674693540159 W= 134.3644983455991 IN= 3.408259321981154 A= 2.516308070047454 MA= 16.93290662173731 ADIST= 4.181097313407356 PER= 3.99166 N= .246921188 ANGMOM= .020461704 DAN= 2.63285 DDN= .96737 L= 45.7826715 B= 2.4358823 MOID= .00285384 TP= 2024-Nov-22.4238411798 Asteroid physical parameters (km, seconds, rotational period in hours): GM= n.a. RAD= n.a. ROTPER= n.a. H= 23.92 G= .150 B-V= n.a. ALBEDO= n.a. STYP= n.a. ASTEROID comments: 1: soln ref.= JPL#78, OCC=3 2: source=ORB ******************************************************************************* ******************************************************************************* Ephemeris / API_USER Fri Dec 12 21:13:00 2025 Pasadena, USA / Horizons ******************************************************************************* Target body name: (2024 YR4) {source: JPL#78} Center body name: Earth (399) {source: DE441} Center-site name: GEOCENTRIC ******************************************************************************* Start time : A.D. 2032-Dec-01 12:00:00.0000 UT Stop time : A.D. 2032-Dec-24 00:00:00.0000 UT Step-size : 1440 minutes ******************************************************************************* Target pole/equ : undefined Target radii : undefined Center geodetic : 0.0, 0.0, -6378.137 {E-lon(deg),Lat(deg),Alt(km)} Center cylindric: 0.0, 0.0, 0.0 {E-lon(deg),Dxy(km),Dz(km)} Center pole/equ : ITRF93 {East-longitude positive} Center radii : 6378.137, 6378.137, 6356.752 km {Equator_a, b, pole_c} Target primary : Sun Vis. interferer : MOON (R_eq= 1737.400) km {source: DE441} Rel. light bend : Sun {source: DE441} Rel. lght bnd GM: 1.3271E+11 km^3/s^2 Small-body perts: Yes {source: SB441-N16} Atmos refraction: NO (AIRLESS) RA format : HMS Time format : CAL Calendar mode : Mixed Julian/Gregorian EOP file : eop.251212.p260310 EOP coverage : DATA-BASED 1962-JAN-20 TO 2025-DEC-12. PREDICTS-> 2026-MAR-09 Units conversion: 1 au= 149597870.700 km, c= 299792.458 km/s, 1 day= 86400.0 s Table cut-offs 1: Elevation (-90.0deg=NO ),Airmass (>38.000=NO), Daylight (NO ) Table cut-offs 2: Solar elongation ( 0.0,180.0=NO ),Local Hour Angle( 0.0=NO ) Table cut-offs 3: RA/DEC angular rate ( 0.0=NO ) ******************************************************************************* Initial IAU76/J2000 heliocentric ecliptic osculating elements (au, days, deg.): EPOCH= 2460705.5 ! 2025-Jan-30.00 (TDB) Residual RMS= .058675 EC= .6615999301423001 QR= .8515188266875525 TP= 2460636.9238411798 OM= 271.3674693540159 W= 134.3644983455991 IN= 3.408259321981154 Equivalent ICRF heliocentric cartesian coordinates (au, au/d): X=-7.817185871179870E-01 Y= 9.591166659204480E-01 Z= 3.666886038072873E-01 VX=-1.831413040000361E-02 VY=-1.487883867213291E-03 VZ=-1.836791648737177E-03 Asteroid physical parameters (km, seconds, rotational period in hours): GM= n.a. RAD= n.a. ROTPER= n.a. H= 23.92 G= .150 B-V= n.a. ALBEDO= n.a. STYP= n.a. ******************************************************************************* Date__(UT)__HR:MN R.A._____(ICRF)_____DEC Cnst **************************************************** $$SOE 2032-Dec-01 12:00 19 43 06.81 -12 06 19.2 Sgr 2032-Dec-02 12:00 19 43 45.68 -12 02 12.6 Sgr 2032-Dec-03 12:00 19 44 21.34 -11 58 16.6 Sgr 2032-Dec-04 12:00 19 44 53.61 -11 54 32.0 Sgr 2032-Dec-05 12:00 19 45 22.31 -11 50 59.3 Sgr 2032-Dec-06 12:00 19 45 47.20 -11 47 39.5 Sgr 2032-Dec-07 12:00 19 46 07.97 -11 44 33.1 Sgr 2032-Dec-08 12:00 19 46 24.26 -11 41 41.3 Aql 2032-Dec-09 12:00 19 46 35.56 -11 39 05.0 Aql 2032-Dec-10 12:00 19 46 41.24 -11 36 45.5 Aql 2032-Dec-11 12:00 19 46 40.43 -11 34 44.3 Aql 2032-Dec-12 12:00 19 46 31.91 -11 33 03.4 Aql 2032-Dec-13 12:00 19 46 13.95 -11 31 45.6 Aql 2032-Dec-14 12:00 19 45 43.92 -11 30 54.6 Aql 2032-Dec-15 12:00 19 44 57.66 -11 30 36.1 Aql 2032-Dec-16 12:00 19 43 48.18 -11 30 59.4 Aql 2032-Dec-17 12:00 19 42 02.74 -11 32 20.6 Aql 2032-Dec-18 12:00 19 39 15.36 -11 35 11.4 Aql 2032-Dec-19 12:00 19 34 23.88 -11 40 42.5 Aql 2032-Dec-20 12:00 19 24 13.93 -11 52 08.9 Sgr 2032-Dec-21 12:00 18 51 08.72 -12 21 01.3 Sct 2032-Dec-22 12:00 11 43 46.02 +01 07 15.7 Vir 2032-Dec-23 12:00 08 35 48.71 +10 01 21.5 Cnc $$EOE ******************************************************************************* Column meaning: TIME Times PRIOR to 1962 are UT1, a mean-solar time closely related to the prior but now-deprecated GMT. Times AFTER 1962 are in UTC, the current civil or "wall-clock" time-scale. UTC is kept within 0.9 seconds of UT1 using integer leap-seconds for 1972 and later years. Conversion from the internal Barycentric Dynamical Time (TDB) of solar system dynamics to the non-uniform civil UT time-scale requested for output has not been determined for UTC times after the next July or January 1st. Therefore, the last known leap-second is used as a constant over future intervals. Time tags refer to the UT time-scale conversion from TDB on Earth regardless of observer location within the solar system, although clock rates may differ due to the local gravity field and no analog to "UT" may be defined for that location. Any 'b' symbol in the 1st-column denotes a B.C. date. First-column blank (" ") denotes an A.D. date. CALENDAR SYSTEM Mixed calendar mode was active such that calendar dates after AD 1582-Oct-15 (if any) are in the modern Gregorian system. Dates prior to 1582-Oct-5 (if any) are in the Julian calendar system, which is automatically extended for dates prior to its adoption on 45-Jan-1 BC. The Julian calendar is useful for matching historical dates. The Gregorian calendar more accurately corresponds to the Earth's orbital motion and seasons. A "Gregorian-only" calendar mode is available if such physical events are the primary interest. NOTE: "n.a." in output means quantity "not available" at the print-time. 'R.A._____(ICRF)_____DEC' = Astrometric right ascension and declination of the target center with respect to the observing site (coordinate origin) in the reference frame of the planetary ephemeris (ICRF). Compensated for down-leg light-time delay aberration. Units: RA in hours-minutes-seconds of time, HH MM SS.ff{ffff} DEC in degrees-minutes-seconds of arc, sDD MN SC.f{ffff} 'Cnst' = Constellation ID; the 3-letter abbreviation for the name of the constellation containing the target centers' astrometric position, as defined by IAU (1930) boundary delineation. See documentation for list of abbreviations. Computations by ... Solar System Dynamics Group, Horizons On-Line Ephemeris System 4800 Oak Grove Drive, Jet Propulsion Laboratory Pasadena, CA 91109 USA General site: https://ssd.jpl.nasa.gov/ Mailing list: https://ssd.jpl.nasa.gov/email_list.html System news : https://ssd.jpl.nasa.gov/horizons/news.html User Guide : https://ssd.jpl.nasa.gov/horizons/manual.html Connect : browser https://ssd.jpl.nasa.gov/horizons/app.html#/x API https://ssd-api.jpl.nasa.gov/doc/horizons.html command-line telnet ssd.jpl.nasa.gov 6775 e-mail/batch https://ssd.jpl.nasa.gov/ftp/ssd/horizons_batch.txt scripts https://ssd.jpl.nasa.gov/ftp/ssd/SCRIPTS Author : Jon.D.Giorgini@jpl.nasa.gov *******************************************************************************